Vertical_Velocity
2 1 0 1 -0 0 0 1 -0 -1 -1 1 -2 -4 -2 1 -1 -2 -2 -0 -1 -1 -3 -1 -3 0 0 0 -2 -1 0 3 -0 3 1 -1 5 -3 -3 2 4 -5 -13
0 -1 1 1 -0 1 1 0 0 -2 -0 -1 -4 -1 -2 -2 -1 1 -1 -1 -1 -2 -1 -1 -2 -2 -3 3 1 -2 -2 2 1 -1 3 0 -2 -1 3 -6 2 -4 -1
3 -1 -2 -0 1 1 1 -1 -0 1 1 -1 -2 -2 -4 -0 -2 -2 -0 2 1 -3 -5 0 -3 -2 -2 -3 -2 -2 -1 4 -2 1 1 -2 10 15 1 -6 7 7 -2
-0 -0 -1 -1 -1 -1 1 3 0 2 1 -1 -0 1 -0 -3 -1 -1 -3 -5 -3 -2 1 1 -5 0 2 -2 -2 -5 -3 -0 -0 -1 1 0 6 17 -2 -9 4 0 3
-1 -2 -2 -0 0 1 2 2 2 1 2 1 -0 1 0 -1 -3 -2 -1 -1 -2 -3 -3 -3 -1 2 2 -3 -5 -4 6 -1 -4 4 4 3 16 -5 21 5 -2 2 1
1 0 -0 -0 0 0 1 1 -0 -1 1 -0 0 1 1 0 -0 -2 -1 -1 -1 -2 2 3 -0 -0 1 -0 1 5 13 -2 8 1 2 14 11 1 4 -1 -3 -5 15
0 1 1 0 -1 -0 -1 1 -1 -0 -0 0 1 -0 -0 1 1 1 -1 -1 -0 -2 -5 -2 1 3 3 6 5 7 0 13 20 21 0 2 12 -12 0 4 3 -0 8
-0 -0 -2 -2 -1 -1 0 -0 1 -0 1 1 1 -0 -1 -0 -1 0 2 1 1 1 -2 -4 -7 -2 -0 2 1 6 6 4 5 5 9 9 9 9 5 8 7 4 -3
-2 -1 -1 -1 -1 -1 -2 -1 -1 -2 -0 1 1 1 0 -1 -1 -0 2 1 -1 1 2 0 -1 -2 -1 -2 -3 3 6 7 3 4 4 4 3 5 4 2 0 0 -3
-1 -1 -1 -1 -2 -2 -2 -1 -0 -2 -1 -2 -1 -1 0 -0 1 1 0 0 1 -1 -2 -1 1 -0 -1 1 -2 -3 -3 -3 4 9 6 8 9 6 4 3 0 2 -1
-1 -2 -0 -0 -1 -1 -3 -2 0 -0 -2 -0 1 1 1 1 -0 0 -0 0 -1 -1 -1 -1 -0 1 1 -1 -2 -1 0 0 0 -3 -4 -2 -3 -5 -1 2 -0 -1 3
-1 -1 -1 -0 -1 -1 -1 -3 -2 -0 0 -2 -4 -1 -2 -1 -2 -2 -2 -1 -1 0 0 0 -2 -3 -1 0 2 0 0 1 2 1 2 0 0 -1 -2 -4 -0 0 -3
-0 -0 -1 -1 -1 -1 -1 -0 -0 -1 -1 1 1 -2 -1 -1 -1 -1 -1 -2 -1 -3 -3 -1 -1 -0 -1 -3 -4 -4 0 1 -0 -3 -0 -0 2 2 3 2 4 5 3
-0 -0 -1 0 -0 -0 -1 1 1 1 1 -1 1 1 0 0 -1 -1 -2 -1 -1 1 -1 -3 -3 -1 0 -0 -3 -3 -2 -2 -2 -2 1 -1 -1 -1 -1 -1 -1 -1 -2
-1 0 0 0 -2 2 -4 -1 0 0 0 0 -2 -1 -1 -1 -1 -3 -3 -2 -2 -1 -2 1 -2 -3 -4 -1 -1 -2 -4 -4 -3 -2 -4 -5 -4 -4 -4 -2 -0 -1 -1
0 -0 -1 1 -3 -1 3 1 -1 -0 0 1 0 -1 -2 -2 -1 0 -1 -3 -3 -2 -2 -2 -1 -0 1 1 0 -1 -3 2 -0 -0 -1 -2 -4 -5 -5 -5 -4 -4 -2
0 -2 1 -3 3 -0 -1 -2 -2 -3 -1 0 2 3 1 -2 0 1 -0 -0 0 -0 -1 -0 -1 -4 -5 -3 -3 -0 -0 -2 -2 -2 4 0 -1 -2 -3 -3 -2 -3 -7
1 -3 -3 2 -1 -5 4 7 2 2 0 -1 -1 -2 -1 -4 -5 -0 2 1 -1 -4 -2 -2 -3 -4 -4 -3 -3 -4 -6 -6 -4 -2 -2 -9 -6 1 -0 -2 -2 -0 -2
-0 3 1 -3 -1 -0 -0 -5 -2 2 1 2 4 2 3 2 -1 -4 -1 -1 1 2 -1 -2 -2 -2 -3 -4 -4 -7 -5 -4 -4 -4 -6 -5 -0 -2 -8 -8 -5 -3 -2
-4 -3 3 -0 -2 0 -1 -1 -1 -2 -3 -1 -3 -1 -1 -1 1 1 1 1 -1 -3 -1 -3 -3 -1 -1 -1 -2 -2 -3 -5 -3 -3 -5 -3 -3 -3 -0 2 -3 -5 -5
-1 -2 -2 2 -1 -2 -2 -2 -1 -1 1 -0 -2 -1 0 -2 -4 -3 -1 -0 -2 -2 -2 -3 -2 -1 -1 -4 -1 -2 -1 -1 -5 3 -2 -6 -3 -1 -3 -1 -2 -2 2
-4 -4 -3 -0 4 2 1 1 2 0 -0 -1 -1 -1 2 2 -1 -1 0 -2 -0 -2 -1 0 -2 -1 -0 -1 -2 -1 -2 -4 -1 -3 -2 -2 -4 -6 -2 -2 -2 -1 2
5 3 2 -3 -2 -2 -0 -0 0 -0 -1 -1 -2 -1 -1 -2 0 1 -2 -0 -3 -2 -1 -3 -1 -2 -1 -2 -0 1 -2 -1 -2 -1 -0 -1 -4 -3 -5 -4 -5 -4 -2
-3 0 4 4 4 2 -0 -1 -1 1 -0 -0 1 -1 -3 -3 -1 -3 2 -3 -1 -1 -1 -1 -0 -1 -1 -2 -1 -3 -2 -1 -1 -0 -1 -1 -2 -3 -3 -3 -3 -3 -2
-1 -3 -3 -1 -3 -2 -2 -2 -0 -1 -0 -0 0 -2 -1 1 -2 1 -1 1 -1 -0 -1 -1 -0 -1 -2 -2 -2 -1 -2 -2 -2 -3 -2 -2 -2 -2 -2 -1 -2 -2 -2
1 1 -0 -1 -1 -1 -1 0 0 -1 -1 2 1 0 1 -0 -1 -1 -0 -1 -1 -1 -1 -1 -1 -1 -2 -1 -1 -1 -1 -1 -2 -3 -1 -1 -1 -4 -1 -1 -2 -3 -2
Height
5619 5615 5611 5608 5606 5602 5599 5597 5595 5591 5588 5585 5581 5577 5573 5570 5567 5563 5561 5560 5559 5558 5556 5555 5554 5552 5553 5553 5554 5558 5562 5566 5568 5573 5579 5586 5593 5598 5604 5609 5613 5619 5626
5610 5606 5603 5600 5598 5596 5593 5591 5588 5585 5582 5579 5576 5572 5568 5564 5560 5556 5553 5551 5549 5547 5545 5543 5541 5540 5539 5539 5541 5543 5545 5549 5553 5558 5565 5572 5578 5584 5591 5591 5595 5602 5609
5603 5599 5596 5593 5591 5589 5587 5584 5581 5579 5576 5574 5570 5568 5564 5560 5555 5550 5546 5544 5542 5539 5536 5534 5533 5532 5530 5529 5529 5529 5531 5534 5538 5544 5551 5559 5568 5570 5576 5580 5585 5588 5593
5595 5592 5590 5587 5584 5582 5580 5577 5574 5572 5570 5568 5565 5563 5559 5556 5551 5546 5542 5537 5533 5531 5529 5526 5527 5525 5522 5519 5521 5521 5520 5521 5524 5531 5538 5546 5554 5556 5560 5566 5569 5572 5576
5588 5585 5583 5581 5577 5574 5572 5569 5567 5565 5563 5561 5560 5557 5554 5551 5547 5544 5540 5536 5532 5527 5522 5520 5520 5517 5512 5513 5513 5512 5513 5514 5514 5521 5527 5534 5539 5541 5546 5552 5557 5561 5566
5582 5579 5575 5572 5569 5567 5565 5563 5560 5558 5556 5555 5554 5551 5549 5546 5543 5540 5537 5533 5530 5527 5523 5518 5514 5512 5509 5509 5509 5507 5507 5510 5509 5514 5519 5522 5526 5532 5538 5541 5545 5546 5552
5574 5571 5568 5565 5562 5560 5558 5556 5554 5552 5550 5548 5547 5545 5543 5541 5538 5536 5534 5530 5527 5524 5521 5517 5514 5511 5508 5506 5504 5503 5502 5504 5504 5507 5511 5517 5519 5524 5528 5530 5533 5535 5535
5569 5565 5562 5559 5556 5554 5552 5551 5548 5546 5544 5542 5540 5538 5537 5535 5534 5532 5530 5527 5525 5522 5519 5515 5512 5508 5507 5505 5502 5499 5497 5498 5499 5499 5504 5508 5510 5512 5514 5517 5520 5522 5525
5564 5559 5556 5553 5550 5548 5546 5545 5543 5541 5539 5536 5534 5533 5531 5530 5528 5527 5525 5523 5521 5518 5516 5513 5511 5507 5504 5500 5499 5497 5496 5494 5494 5493 5494 5497 5499 5499 5501 5505 5506 5510 5513
5558 5555 5552 5549 5546 5544 5543 5541 5538 5536 5534 5532 5530 5527 5525 5524 5522 5521 5519 5517 5515 5513 5511 5509 5507 5505 5503 5500 5498 5495 5492 5491 5489 5489 5488 5488 5488 5490 5492 5493 5495 5497 5498
5554 5551 5549 5546 5543 5541 5539 5536 5534 5531 5528 5526 5524 5522 5520 5518 5516 5514 5512 5510 5508 5506 5505 5503 5501 5499 5497 5496 5494 5492 5490 5489 5488 5486 5484 5484 5484 5485 5486 5486 5486 5486 5487
5550 5547 5544 5542 5539 5536 5534 5531 5529 5526 5524 5521 5517 5515 5513 5510 5508 5507 5505 5502 5500 5498 5496 5494 5492 5490 5489 5487 5486 5485 5484 5482 5481 5480 5479 5479 5479 5478 5478 5478 5477 5478 5478
5545 5542 5539 5536 5534 5531 5528 5526 5523 5521 5518 5516 5513 5509 5507 5504 5502 5499 5497 5494 5491 5488 5486 5484 5482 5480 5478 5476 5475 5474 5473 5472 5471 5470 5469 5468 5468 5468 5468 5468 5467 5467 5466
5540 5537 5533 5531 5528 5525 5522 5521 5518 5515 5512 5509 5506 5503 5500 5496 5493 5490 5487 5485 5482 5479 5477 5474 5472 5469 5467 5465 5463 5461 5459 5458 5458 5456 5456 5455 5454 5453 5453 5453 5452 5452 5452
5534 5531 5528 5525 5521 5519 5516 5513 5511 5507 5504 5501 5497 5494 5490 5487 5484 5480 5477 5474 5471 5468 5465 5463 5459 5457 5455 5453 5451 5448 5446 5444 5443 5441 5440 5438 5437 5436 5436 5435 5434 5433 5432
5529 5525 5522 5519 5515 5512 5509 5506 5502 5498 5495 5491 5488 5484 5480 5477 5473 5470 5466 5462 5458 5455 5452 5449 5447 5444 5441 5439 5437 5434 5431 5429 5427 5424 5422 5420 5419 5417 5416 5415 5414 5413 5412
5522 5518 5515 5512 5508 5505 5501 5497 5493 5489 5485 5481 5478 5475 5470 5466 5462 5459 5454 5450 5446 5442 5439 5435 5432 5428 5425 5422 5419 5417 5414 5411 5409 5408 5405 5401 5399 5397 5395 5394 5393 5392 5390
5515 5510 5507 5504 5500 5496 5494 5490 5486 5481 5477 5472 5468 5464 5458 5453 5449 5445 5441 5436 5431 5426 5423 5420 5416 5413 5409 5404 5400 5396 5394 5392 5390 5387 5384 5381 5380 5378 5374 5371 5370 5368 5366
5507 5503 5499 5495 5491 5487 5483 5479 5475 5471 5466 5462 5457 5451 5446 5440 5435 5431 5428 5423 5418 5413 5407 5403 5399 5395 5391 5387 5383 5378 5375 5371 5369 5366 5361 5359 5358 5355 5352 5349 5347 5344 5342
5498 5494 5491 5486 5482 5478 5473 5468 5463 5458 5453 5448 5442 5437 5432 5427 5421 5416 5411 5406 5401 5396 5390 5385 5381 5377 5372 5368 5363 5359 5354 5350 5347 5343 5338 5335 5333 5330 5328 5325 5321 5319 5316
5488 5484 5480 5476 5471 5467 5461 5457 5452 5446 5440 5434 5428 5423 5417 5411 5406 5401 5396 5390 5385 5380 5374 5369 5364 5360 5354 5349 5344 5339 5334 5329 5325 5321 5316 5311 5308 5304 5301 5298 5294 5292 5288
5478 5474 5470 5466 5462 5456 5450 5445 5439 5433 5427 5421 5415 5409 5404 5398 5391 5386 5380 5375 5369 5364 5358 5352 5347 5341 5336 5330 5325 5319 5314 5309 5304 5298 5293 5287 5282 5278 5275 5271 5267 5264 5262
5470 5465 5460 5455 5450 5444 5438 5432 5426 5419 5413 5407 5401 5395 5389 5383 5378 5372 5366 5360 5353 5347 5341 5335 5328 5322 5316 5310 5304 5298 5293 5288 5282 5276 5270 5264 5259 5254 5249 5244 5240 5237 5234
5459 5455 5450 5444 5438 5432 5425 5419 5413 5407 5400 5394 5388 5382 5376 5370 5364 5357 5351 5344 5337 5330 5323 5317 5310 5303 5296 5290 5284 5277 5271 5265 5259 5254 5248 5243 5237 5232 5227 5222 5218 5213 5209
5448 5442 5437 5431 5425 5419 5413 5407 5401 5395 5388 5382 5376 5369 5362 5356 5349 5342 5335 5328 5321 5313 5306 5299 5292 5285 5278 5271 5264 5258 5251 5245 5239 5234 5228 5222 5216 5211 5206 5201 5196 5191 5186
5437 5431 5425 5419 5413 5407 5400 5394 5388 5382 5375 5369 5363 5356 5349 5341 5334 5327 5320 5312 5305 5298 5290 5282 5274 5267 5259 5252 5245 5239 5232 5226 5220 5214 5209 5203 5197 5191 5186 5181 5176 5171 5166